Location: Roanoke
(37.2710°N, 79.9420°W)
Time: 11:59:28
(UTC-05:00)

S-56A Canister/Altair - Pass Details

Date: 27 November 2019
Orbit: 633 x 2499 km, 38.9° (Epoch: 04 December)

Event Time Altitude Azimuth Distance (km) Brightness Sun altitude
Rises 15:53:13 0° 259° (WSW) 6,002 13.3 11.0°
Reaches altitude 10° 15:57:26 10° 260° (W) 4,832 13.0 10.4°
Maximum altitude 16:10:38 86° 350° (N) 1,744 9.5 8.2°
Drops below altitude 10° 16:19:21 10° 80° (E) 3,318 10.2 6.8°
Sets 16:21:45 0° 81° (E) 4,076 10.7 6.4°
